Wind_Speed
56 53 49 51 48 49 44 39 38 33 30 31 32 29 28 22 14 7 13 16 14 10 3 12 12 12 8 11 15 16 17 19 20 20 18 20 20 19 21 20 19 18 18 18
58 51 58 55 51 48 45 43 38 38 34 35 37 36 38 28 20 18 15 16 13 11 5 11 15 14 12 13 20 21 20 20 20 20 18 19 19 17 18 17 17 16 15 13
61 65 60 54 51 48 45 43 44 42 42 40 40 40 37 33 27 25 25 17 18 13 8 11 15 16 12 15 22 23 23 21 20 19 19 18 17 15 13 14 12 13 14 12
64 67 60 54 48 51 47 48 50 48 47 43 45 43 40 37 32 27 25 24 27 22 14 15 15 14 15 16 26 27 27 26 23 21 19 19 18 15 11 11 11 11 10 7
66 69 64 58 58 56 57 57 54 52 46 46 44 43 44 42 36 33 31 31 24 21 15 17 18 18 18 22 29 28 29 28 26 24 22 20 20 18 14 11 12 11 11 9
76 76 70 63 64 58 65 62 56 51 45 41 42 40 41 42 43 42 37 31 31 19 26 19 19 22 25 24 31 32 32 30 29 27 24 23 22 20 17 14 14 13 11 10
80 76 70 68 66 65 65 62 55 48 43 38 46 41 44 47 49 45 40 35 30 33 29 24 19 20 26 25 32 34 34 33 30 27 25 24 23 21 19 17 14 12 9 7
81 78 70 71 67 66 65 64 58 52 47 50 58 46 44 50 51 46 40 35 33 33 30 25 21 20 26 24 33 37 38 34 31 28 27 25 23 22 20 18 15 11 9 8
85 77 82 80 74 69 65 57 57 57 57 58 55 49 52 50 49 49 43 38 35 33 29 27 21 17 22 26 31 40 40 38 34 30 30 27 25 22 21 19 15 13 11 9
92 95 91 84 84 75 65 66 60 55 53 46 49 49 53 45 45 46 45 42 42 38 34 29 21 21 23 28 31 42 45 43 37 34 31 29 26 24 22 19 16 13 12 11
99 96 90 93 83 67 69 63 58 59 54 51 49 48 47 42 44 44 47 48 47 43 37 31 27 24 24 29 32 44 48 45 41 37 33 30 28 25 22 18 15 14 13 13
104 95 97 88 73 73 72 68 65 57 55 53 54 50 45 43 43 42 45 49 51 47 42 37 32 26 25 28 34 43 49 46 44 39 36 35 30 26 23 20 18 18 18 18
103 100 95 88 88 84 73 66 61 61 62 55 54 51 43 42 41 40 46 50 52 54 49 43 36 30 28 27 33 41 48 46 43 40 39 36 32 28 27 26 24 23 22 21
94 96 93 86 76 77 71 66 65 64 59 58 54 53 45 45 45 42 43 49 54 58 54 47 42 35 33 31 32 39 41 42 41 40 39 36 33 32 33 31 28 26 26 25
92 88 89 84 80 75 76 75 69 61 60 57 58 52 48 46 45 45 48 49 54 59 57 52 46 41 36 37 38 39 40 41 40 40 39 37 35 34 33 31 29 28 27 27
92 91 89 89 86 84 82 77 70 67 65 63 62 54 51 51 46 45 45 47 55 59 58 55 53 49 45 42 43 42 42 41 40 41 42 38 36 35 35 34 34 33 31 33
93 92 84 87 90 92 81 73 71 71 69 64 59 56 54 53 49 47 46 50 53 60 62 61 57 53 47 43 42 43 42 41 42 42 42 40 39 40 39 37 37 38 36 36
93 93 85 94 97 89 81 80 74 69 72 69 68 69 60 59 59 50 48 48 53 58 60 61 58 54 51 48 45 42 44 42 42 42 41 40 37 35 34 34 37 38 38 36
94 93 92 98 96 85 86 86 82 81 78 75 78 79 72 71 60 47 45 44 44 49 54 58 55 51 51 49 47 44 42 42 43 44 42 38 36 35 34 36 37 37 39 36
96 94 98 96 91 94 98 91 85 86 83 80 83 83 79 70 60 48 44 42 39 34 37 44 52 56 55 53 51 50 49 48 47 46 44 40 38 37 37 39 37 38 38 38
98 98 100 97 97 99 95 93 89 93 92 86 87 89 88 64 51 44 42 43 39 32 32 35 47 55 57 58 57 55 52 52 53 49 44 41 40 42 43 41 41 42 42 43
103 103 102 100 99 97 101 100 97 94 95 91 91 95 78 59 50 45 46 45 41 37 36 35 35 41 51 57 58 58 56 55 53 49 48 47 48 47 45 45 46 47 45 46
104 105 103 107 110 105 106 103 99 99 97 93 92 93 77 58 54 52 51 52 54 49 45 42 38 35 34 37 46 54 60 61 58 55 54 54 54 52 51 51 50 46 38 34
105 105 106 101 105 105 107 105 102 103 98 95 91 84 72 59 58 60 58 60 61 59 57 53 46 43 40 37 35 39 42 43 49 52 54 56 55 53 48 41 38 35 35 37
104 105 103 102 102 98 101 100 98 100 99 94 86 79 72 68 64 63 64 64 63 69 62 57 53 51 47 45 47 47 42 41 41 40 40 41 42 41 39 37 37 39 39 41
93 101 100 96 97 95 96 97 94 96 93 91 84 79 74 70 71 70 68 70 72 79 66 62 60 58 56 53 55 55 52 51 48 47 47 47 46 45 43 41 41 44 45 45
Wind_Direction
239 233 242 241 245 249 248 249 247 250 255 260 261 260 256 259 263 282 238 279 300 303 287 219 209 209 205 204 184 173 165 155 146 149 146 142 136 131 129 128 122 113 107 107
239 243 240 241 243 246 246 248 242 245 252 257 257 259 265 259 247 229 270 248 277 290 280 218 199 204 203 206 185 175 172 163 151 146 148 150 142 138 132 130 128 123 114 113
238 238 242 242 240 239 238 237 239 239 244 247 254 256 258 259 250 239 222 262 263 265 244 224 187 199 203 211 191 182 174 167 161 159 158 160 155 147 141 138 136 130 121 113
233 237 237 236 237 235 236 236 238 239 244 249 245 245 247 247 245 242 224 234 257 254 248 222 194 197 196 219 194 185 176 172 171 169 167 167 169 165 161 152 155 144 139 125
233 233 233 232 231 230 233 233 236 240 242 250 249 244 244 243 237 216 222 210 230 234 244 242 220 200 200 213 200 195 180 180 177 176 176 173 175 177 178 173 158 150 145 136
234 235 234 233 231 231 234 236 239 243 246 253 244 239 241 240 234 236 226 212 226 242 242 241 232 205 208 210 211 198 188 185 186 182 178 181 181 182 182 177 165 164 156 148
238 238 236 236 236 235 238 241 243 248 252 244 237 232 234 233 237 231 226 216 211 209 217 237 232 209 203 204 219 207 195 191 194 187 185 182 180 179 178 180 182 181 178 172
233 234 236 237 235 233 233 235 235 234 227 224 229 226 230 232 233 232 234 221 211 223 230 234 232 217 205 200 219 215 199 196 197 196 194 189 187 183 183 187 189 194 211 223
232 232 232 229 227 229 230 232 231 227 227 228 233 232 235 242 241 240 233 227 218 222 230 231 236 231 217 209 215 218 203 194 197 202 201 196 194 191 193 199 201 213 227 240
222 223 225 225 225 223 222 224 224 225 229 231 236 237 237 239 243 239 236 226 221 218 226 230 231 230 227 211 213 215 202 198 197 202 204 202 199 202 207 213 220 232 241 247
226 228 225 226 223 224 225 224 224 228 227 228 232 233 235 234 235 234 233 223 221 216 222 229 230 226 227 211 211 214 204 201 201 205 208 208 209 211 217 220 229 244 251 247
225 226 229 229 226 224 223 221 223 226 228 229 230 232 235 234 237 233 230 227 217 219 217 224 226 225 222 212 209 211 208 204 204 206 209 213 216 219 225 229 238 243 247 257
220 222 225 226 224 223 225 224 228 226 226 226 226 227 228 231 232 234 226 226 217 217 217 217 221 223 216 213 209 212 213 209 210 210 214 218 220 224 229 232 240 241 246 253
219 220 223 226 228 227 224 227 228 226 227 229 229 230 231 230 234 229 225 223 220 214 215 216 217 218 214 212 209 212 217 218 217 219 220 222 225 228 232 234 240 242 246 253
213 216 218 220 224 226 223 220 223 226 226 226 227 228 229 227 226 227 225 221 222 218 213 214 218 218 218 210 211 215 222 222 223 225 226 227 229 234 239 241 245 250 255 259
208 211 210 215 218 220 223 223 217 219 221 220 223 225 225 224 219 223 229 224 220 223 215 215 216 217 218 217 211 212 215 225 228 231 231 232 235 239 242 244 247 251 254 259
206 208 205 211 216 221 221 221 224 219 220 221 224 227 226 229 224 218 222 223 219 221 219 213 216 219 219 224 223 220 222 221 225 231 236 237 238 240 242 245 249 251 254 260
203 206 202 209 213 217 218 218 221 227 221 222 220 225 223 223 224 214 219 224 222 223 222 220 216 220 221 224 230 229 229 229 229 231 233 236 239 243 245 246 247 252 259 263
202 202 203 210 210 210 217 217 215 216 221 224 222 221 217 221 225 217 219 230 229 226 224 223 219 219 222 224 228 232 235 238 240 239 238 237 239 239 242 245 249 255 261 268
201 201 205 210 207 207 214 214 214 216 217 219 223 227 227 224 221 217 212 223 227 224 221 222 222 220 220 222 226 227 229 230 234 237 239 242 245 247 248 250 255 259 265 272
200 201 204 207 208 209 212 214 213 214 216 217 221 226 231 228 229 222 209 222 228 220 214 217 220 221 222 224 227 231 231 234 235 239 242 243 247 250 250 254 257 262 266 269
197 201 203 205 209 209 210 213 214 216 219 219 220 228 226 223 221 220 217 215 223 220 223 226 225 222 221 223 226 230 233 237 240 242 243 245 245 248 252 255 257 261 266 274
199 202 205 205 208 208 210 213 213 216 217 220 223 227 227 223 217 212 217 225 216 215 217 223 225 226 222 223 224 228 233 235 237 239 242 244 247 249 250 253 259 261 258 254
200 201 206 207 212 212 213 215 213 215 218 220 221 224 228 226 222 215 212 219 229 222 216 220 225 231 232 230 232 228 223 230 234 236 239 241 244 246 246 244 244 244 243 245
201 203 205 207 212 214 218 217 218 216 218 219 221 223 223 224 224 221 218 221 227 236 228 221 221 225 233 237 236 236 233 231 231 229 231 235 233 233 236 235 237 235 241 246
204 204 207 211 214 214 218 221 221 223 221 221 220 222 224 225 222 224 223 223 225 233 231 228 228 228 225 228 234 239 237 238 239 238 237 239 238 238 241 240 238 240 243 247
Height
10904 10916 10917 10913 10921 10922 10932 10938 10941 10943 10945 10945 10947 10951 10956 10960 10964 10963 10963 10962 10966 10967 10970 10972 10974 10979 10982 10985 10987 10988 10990 10990 10992 10995 10997 10999 11000 11002 11004 11004 11005 11005 11006 11008
10896 10902 10895 10906 10912 10917 10924 10929 10934 10936 10939 10938 10938 10943 10942 10959 10961 10960 10962 10957 10959 10962 10965 10970 10973 10977 10981 10984 10985 10987 10990 10992 10994 10997 10998 11000 11002 11003 11005 11006 11007 11008 11009 11010
10880 10869 10887 10897 10901 10908 10913 10919 10921 10926 10927 10931 10933 10936 10943 10945 10953 10955 10956 10954 10956 10959 10962 10968 10968 10973 10978 10982 10984 10986 10989 10993 10995 10997 10999 11001 11003 11005 11006 11008 11009 11010 11011 11012
10858 10858 10875 10882 10891 10895 10901 10904 10907 10914 10920 10927 10928 10929 10936 10938 10944 10949 10953 10955 10955 10957 10961 10966 10965 10969 10974 10980 10982 10983 10987 10990 10993 10996 10999 11001 11003 11005 11006 11008 11010 11011 11012 11013
10848 10843 10855 10867 10873 10879 10884 10886 10895 10902 10912 10915 10922 10928 10927 10933 10939 10945 10943 10953 10953 10955 10959 10962 10963 10963 10970 10975 10979 10982 10985 10988 10990 10994 10997 10999 11002 11004 11006 11008 11009 11010 11012 11013
10821 10824 10839 10854 10856 10868 10865 10874 10885 10894 10902 10910 10912 10918 10919 10922 10925 10929 10941 10946 10951 10952 10956 10955 10957 10956 10963 10970 10975 10978 10982 10985 10988 10990 10994 10996 10999 11002 11004 11007 11008 11010 11010 11012
10800 10814 10826 10835 10844 10853 10856 10866 10877 10885 10895 10903 10896 10905 10908 10910 10909 10920 10931 10940 10945 10948 10946 10949 10952 10953 10958 10965 10972 10976 10980 10982 10985 10988 10991 10995 10998 11001 11003 11005 11007 11009 11010 11011
10784 10795 10813 10817 10828 10835 10842 10848 10862 10868 10877 10874 10877 10895 10897 10897 10901 10913 10920 10932 10941 10941 10940 10942 10948 10949 10954 10958 10967 10972 10976 10980 10984 10987 10989 10992 10995 10998 11002 11004 11006 11009 11010 11011
10759 10780 10776 10785 10800 10811 10825 10842 10845 10851 10857 10863 10875 10882 10882 10891 10900 10906 10916 10924 10933 10934 10935 10939 10943 10944 10949 10953 10960 10968 10972 10975 10979 10983 10986 10989 10992 10996 10999 11002 11004 11006 11008 11009
10729 10724 10741 10762 10768 10790 10812 10814 10828 10842 10851 10864 10865 10870 10872 10887 10892 10900 10907 10916 10921 10929 10930 10933 10936 10939 10943 10949 10956 10962 10965 10968 10974 10977 10982 10986 10990 10993 10996 10999 11002 11003 11005 11007
10705 10722 10734 10735 10757 10792 10798 10811 10822 10828 10838 10847 10852 10858 10864 10876 10881 10889 10897 10906 10909 10919 10923 10926 10931 10935 10940 10944 10950 10956 10959 10963 10967 10972 10978 10983 10986 10990 10994 10997 10999 11001 11002 11004
10679 10710 10711 10736 10772 10774 10780 10794 10802 10820 10827 10834 10839 10848 10857 10866 10870 10878 10886 10894 10904 10909 10918 10920 10925 10930 10933 10937 10942 10947 10954 10958 10962 10967 10972 10976 10981 10986 10990 10993 10996 10998 10999 10999
10657 10685 10701 10725 10733 10747 10771 10788 10797 10804 10807 10821 10827 10832 10846 10853 10859 10866 10874 10880 10891 10899 10908 10914 10918 10923 10926 10930 10936 10941 10948 10954 10958 10962 10966 10971 10977 10982 10985 10988 10991 10993 10994 10995
10643 10670 10694 10714 10743 10751 10764 10778 10781 10790 10802 10808 10819 10823 10838 10844 10848 10857 10862 10867 10875 10886 10896 10904 10909 10915 10920 10925 10931 10938 10944 10950 10954 10957 10961 10966 10972 10975 10977 10982 10984 10987 10989 10989
10629 10659 10684 10704 10721 10736 10743 10751 10765 10784 10790 10799 10798 10812 10824 10833 10838 10844 10850 10858 10863 10871 10885 10896 10901 10908 10913 10919 10924 10931 10938 10942 10947 10951 10955 10960 10965 10968 10971 10975 10979 10981 10983 10984
10615 10628 10659 10681 10699 10709 10720 10739 10756 10766 10774 10780 10783 10800 10811 10818 10830 10836 10839 10847 10853 10860 10875 10886 10893 10899 10905 10911 10916 10922 10929 10935 10940 10943 10947 10954 10958 10962 10965 10968 10971 10974 10976 10976
10599 10615 10649 10672 10679 10686 10718 10737 10748 10757 10761 10773 10779 10789 10802 10806 10820 10825 10827 10833 10844 10849 10858 10871 10881 10891 10900 10905 10911 10918 10923 10928 10932 10935 10941 10947 10951 10954 10957 10961 10963 10965 10968 10968
10584 10605 10635 10643 10651 10680 10710 10719 10734 10750 10753 10760 10762 10761 10786 10789 10795 10813 10820 10826 10832 10841 10853 10864 10877 10886 10894 10899 10906 10912 10917 10921 10924 10928 10933 10938 10943 10947 10951 10954 10955 10957 10958 10961
10572 10598 10615 10617 10640 10677 10684 10694 10710 10721 10731 10738 10737 10737 10757 10765 10788 10810 10820 10825 10832 10838 10848 10859 10869 10878 10885 10892 10898 10904 10910 10914 10917 10920 10924 10930 10935 10939 10943 10945 10947 10949 10950 10952
10556 10583 10590 10606 10637 10647 10647 10673 10698 10703 10713 10725 10722 10726 10739 10760 10783 10803 10815 10819 10824 10833 10842 10848 10855 10863 10870 10878 10885 10891 10895 10901 10905 10907 10915 10923 10927 10931 10934 10935 10939 10941 10942 10944
10545 10563 10572 10594 10609 10622 10648 10660 10677 10680 10689 10708 10707 10705 10713 10765 10788 10804 10815 10816 10821 10828 10831 10835 10841 10850 10859 10867 10875 10880 10887 10889 10892 10901 10910 10915 10918 10920 10922 10926 10929 10930 10932 10934
10518 10541 10561 10581 10596 10614 10624 10634 10651 10666 10675 10690 10697 10689 10727 10765 10788 10799 10807 10814 10818 10821 10824 10829 10834 10841 10847 10854 10864 10869 10874 10878 10884 10892 10898 10901 10903 10907 10911 10915 10917 10919 10922 10923
10514 10526 10547 10556 10561 10588 10601 10620 10638 10646 10661 10678 10688 10693 10729 10760 10777 10788 10796 10801 10807 10812 10817 10822 10828 10834 10840 10846 10851 10856 10859 10865 10873 10878 10883 10886 10890 10895 10899 10902 10905 10907 10910 10911
10502 10519 10529 10556 10562 10580 10587 10598 10616 10634 10655 10667 10683 10705 10730 10753 10765 10774 10781 10785 10788 10798 10807 10814 10822 10826 10832 10839 10843 10843 10847 10852 10858 10864 10868 10873 10878 10881 10886 10889 10892 10896 10898 10900
10490 10512 10528 10546 10555 10582 10595 10610 10626 10638 10651 10665 10688 10706 10720 10735 10749 10760 10770 10774 10777 10775 10791 10804 10814 10820 10825 10829 10832 10834 10840 10844 10848 10852 10857 10860 10865 10869 10873 10878 10881 10884 10887 10889
10501 10516 10532 10552 10558 10575 10590 10602 10619 10630 10647 10661 10678 10695 10712 10724 10733 10743 10753 10758 10760 10759 10775 10787 10797 10805 10812 10816 10818 10823 10830 10835 10839 10843 10847 10850 10854 10858 10863 10869 10872 10873 10874 10877